Showing default

COSMOS 2502, 40358

Orbit data source: Space-Track

COSMOS 2502, 40358 is a payload satellite owned by VVKO (CIS) in LEO that was launched on Thu, 25 Dec 2014 UTC via a SOYUZ-2-1B launch vehicle from the Plesetsk Missile And Space Complex (PKMTR). Payloads include a variety of satellites, spacecraft, and rockets equipped with specific instruments for various scientific and technological missions. These include communications satellites like Starlink; space stations such as the ISS; scientific satellites like the Hubble; Earth observation satellites from companies like Planet Labs, Umbra, and HawkEye 360; GPS; miniature CubeSats for education and research; and military/defense satellites.

Loading next visibility...
COSMOS 2502 details
Identifier
40358, 2014-086A
Orbit
LEO
Last TLE update10 hours ago
Origin
Flag of CISVVKO (CIS)
ManufacturerTSSKBP/ARSLO
MissionOperational Defense SIGINT
Bus & MotorYANTAR'-LOTOS, 11D428
Mass6,575 kg wet, ~6,500 kg dry
Launch date (UTC)
2014-12-25 (10 years ago)
Launch vehicle
SOYUZ-2-1B
Launch site
Plesetsk Missile And Space Complex (PKMTR)
Object type
Payload
Rocket body
Debris
Shape & HBRCyl + 2 Pan, 6.3 m
Radar Cross Section16.222 m², Large (>1 m²)

Expand to show TLE details & history

TLE from 10 hours ago
0 COSMOS 2502
1 40358U 14086A   24346.53555039  .00000081  00000-0  11067-3 0  9990
2 40358  67.1522 272.6877 0007989 277.6810  82.3367 13.97704135506716
Epoch: 2024-12-11T12:51Z
Definitive object data (Epoch: 2024-12-11T12:51:11.553Z)
Latitude-0.0001°
Longitude-0.83932°
Altitude903.095 km
Speed7.401 km/s
True Right ascension18h 10m 45s
True Declination0° 00' 00"
Sunlit
Object was in daylight at TLE epoch
Visualization TLE readout
Latitude-57.5196°
Longitude-43.03089°
Altitude917.636 km
Speed7.395 km/s
Apparent Right ascension11h 52m 19s
Apparent Declination-58° 47' 59"
Sunlit
Object is in daylight
Visualization observer readout
Local Sidereal Time21:14:37
Azimuth219.487° SW
Elevation-58.844°
Doppler factor1
Orbital elements
Apogee altitude905.919 km
Perigee altitude894.29 km
Semi-major axis7,278.241 km
Eccentricity0.0007989
Inclination67.1522°
RAAN272.6877°
Arg. of periapsis277.681°
True anomaly82.42744°
Mean anomaly82.3367°
Eccentric anomaly82.38207°
Mean motion3.49545 °/min
BSTAR0.00011067
Orbital period102.99 mins
Loading maneuver chart data...
Loading historical data...
Loading historical data...
Loading historical data...
Loading historical data...
Loading historical data...
Loading historical data...
Loading historical data...
Other satellites on launch #86 in the year 2014 (2014-12-25 UTC)

COSMOS 2502 Visibility forecast

Observer location: undefined°, undefined

Span
Click to sort rows by Start time (UTC) header in descending order
Start Az.
Max El. time (UTC)
Max El. Az.
Max El.
End time (UTC)
End Az.
8 mins2024-12-12 04:51:32.348Z4.59° NNE2024-12-12 04:54:32.348Z42.421° NE22.846°2024-12-12 04:59:32.348Z100.952° ESE
10 mins2024-12-12 06:36:32.348Z320.765° NNW2024-12-12 06:41:32.348Z228.02° WSW39.994°2024-12-12 06:46:32.348Z169.838° S
9 mins2024-12-12 19:53:32.348Z162.553° S2024-12-12 19:57:32.348Z104.892° ESE28.864°2024-12-12 20:02:32.348Z47.115° ENE
9 mins2024-12-12 21:39:32.348Z249.339° W2024-12-12 21:43:32.348Z317.227° NNW31.97°2024-12-12 21:48:32.348Z14.557° NNE
|